date,time,SUV Intensity [MED/Hr],UV Index,Daily total [MED],Since Last [MED]
15/07/2023,23:58:59,0.001,0.0,9.522,9.522
15/07/2023,23:59:59,0.001,0.0,0.0,-9.522
16/07/2023,00:01:02,-0.001,0.0,0.0,0.0
16/07/2023,00:01:59,0.000,0.0,0.0,0.0
16/07/2023,00:02:59,0.000,0.0,0.0,0.0
16/07/2023,00:03:59,0.000,0.0,0.0,0.0
16/07/2023,00:04:59,-0.001,0.0,0.0,0.0
16/07/2023,00:06:00,0.000,0.0,0.0,0.0
16/07/2023,00:06:59,0.000,0.0,0.0,0.0
16/07/2023,00:08:00,-0.000,0.0,0.0,0.0
16/07/2023,00:08:59,0.001,0.0,0.0,0.0
16/07/2023,00:09:59,0.000,0.0,0.0,0.0
16/07/2023,00:10:59,0.000,0.0,0.0,0.0
16/07/2023,00:12:00,-0.001,0.0,0.0,0.0
16/07/2023,00:12:59,0.000,0.0,0.0,0.0
16/07/2023,00:13:59,-0.000,0.0,0.0,0.0
16/07/2023,00:14:59,-0.000,0.0,0.0,0.0
16/07/2023,00:16:00,-0.000,0.0,0.0,0.0
16/07/2023,00:16:59,0.000,0.0,0.0,0.0
16/07/2023,00:18:00,-0.000,0.0,0.0,0.0
16/07/2023,00:18:59,-0.000,0.0,0.0,0.0
16/07/2023,00:19:59,-0.001,0.0,0.0,0.0
16/07/2023,00:20:59,-0.000,0.0,0.0,0.0
16/07/2023,00:21:59,-0.000,0.0,0.0,0.0
16/07/2023,00:22:59,-0.000,0.0,0.0,0.0
16/07/2023,00:24:00,-0.000,0.0,0.0,0.0
16/07/2023,00:24:59,0.001,0.0,0.0,0.0
16/07/2023,00:25:59,-0.001,0.0,0.0,0.0
16/07/2023,00:26:59,-0.000,0.0,0.0,0.0
16/07/2023,00:28:00,0.001,0.0,0.0,0.0
16/07/2023,00:28:59,-0.000,0.0,0.0,0.0
16/07/2023,00:29:59,-0.000,0.0,0.0,0.0
16/07/2023,00:30:59,0.000,0.0,0.0,0.0
16/07/2023,00:31:59,0.000,0.0,0.0,0.0
16/07/2023,00:32:59,-0.001,0.0,0.0,0.0
16/07/2023,00:33:59,-0.001,0.0,0.0,0.0
16/07/2023,00:34:59,-0.001,0.0,0.0,0.0
16/07/2023,00:35:59,0.000,0.0,0.0,0.0
16/07/2023,00:37:00,-0.000,0.0,0.0,0.0
16/07/2023,00:37:59,-0.001,0.0,0.0,0.0
16/07/2023,00:39:00,-0.000,0.0,0.0,0.0
16/07/2023,00:39:59,-0.000,0.0,0.0,0.0
16/07/2023,00:40:59,-0.000,0.0,0.0,0.0
16/07/2023,00:41:59,-0.000,0.0,0.0,0.0
16/07/2023,00:42:59,0.000,0.0,0.0,0.0
16/07/2023,00:44:00,-0.000,0.0,0.0,0.0
16/07/2023,00:44:59,-0.000,0.0,0.0,0.0
16/07/2023,00:45:59,-0.000,0.0,0.0,0.0
16/07/2023,00:46:59,-0.000,0.0,0.0,0.0
16/07/2023,00:48:00,-0.000,0.0,0.0,0.0
16/07/2023,00:49:00,-0.001,0.0,0.0,0.0
16/07/2023,00:49:59,0.001,0.0,0.0,0.0
16/07/2023,00:50:59,-0.000,0.0,0.0,0.0
16/07/2023,00:51:59,-0.000,0.0,0.0,0.0
16/07/2023,00:52:59,-0.001,0.0,0.0,0.0
16/07/2023,00:53:59,-0.000,0.0,0.0,0.0
16/07/2023,00:54:59,-0.000,0.0,0.0,0.0
16/07/2023,00:55:59,0.000,0.0,0.0,0.0
16/07/2023,00:57:00,-0.000,0.0,0.0,0.0
16/07/2023,00:57:59,-0.000,0.0,0.0,0.0
16/07/2023,00:58:59,0.000,0.0,0.0,0.0
16/07/2023,00:59:58,-0.001,0.0,0.0,0.0
16/07/2023,01:00:58,-0.001,0.0,0.0,0.0
16/07/2023,01:02:00,-0.000,0.0,0.0,0.0
16/07/2023,01:02:59,-0.000,0.0,0.0,0.0
16/07/2023,01:03:59,-0.000,0.0,0.0,0.0
16/07/2023,01:04:59,0.000,0.0,0.0,0.0
16/07/2023,01:06:00,-0.000,0.0,0.0,0.0
16/07/2023,01:07:00,-0.001,0.0,0.0,0.0
16/07/2023,01:07:59,0.000,0.0,0.0,0.0
16/07/2023,01:09:00,-0.000,0.0,0.0,0.0
16/07/2023,01:09:59,-0.000,0.0,0.0,0.0
16/07/2023,01:10:59,0.001,0.0,0.0,0.0
16/07/2023,01:11:59,-0.000,0.0,0.0,0.0
16/07/2023,01:12:59,-0.000,0.0,0.0,0.0
16/07/2023,01:13:59,-0.001,0.0,0.0,0.0
16/07/2023,01:14:59,0.001,0.0,0.0,0.0
16/07/2023,01:15:59,0.000,0.0,0.0,0.0
16/07/2023,01:17:00,-0.000,0.0,0.0,0.0
16/07/2023,01:17:59,0.000,0.0,0.0,0.0
16/07/2023,01:18:59,0.001,0.0,0.0,0.0
16/07/2023,01:20:02,-0.000,0.0,0.0,0.0
16/07/2023,01:21:00,-0.000,0.0,0.0,0.0
16/07/2023,01:21:59,-0.000,0.0,0.0,0.0
16/07/2023,01:22:59,0.000,0.0,0.0,0.0
16/07/2023,01:24:00,-0.000,0.0,0.0,0.0
16/07/2023,01:24:59,-0.001,0.0,0.0,0.0
16/07/2023,01:25:59,0.001,0.0,0.0,0.0
16/07/2023,01:26:59,0.000,0.0,0.0,0.0
16/07/2023,01:27:59,-0.001,0.0,0.0,0.0
16/07/2023,01:28:59,-0.001,0.0,0.0,0.0
16/07/2023,01:29:59,-0.000,0.0,0.0,0.0
16/07/2023,01:31:00,-0.000,0.0,0.0,0.0
16/07/2023,01:31:59,-0.000,0.0,0.0,0.0
16/07/2023,01:32:59,-0.001,0.0,0.0,0.0
16/07/2023,01:33:59,-0.000,0.0,0.0,0.0
16/07/2023,01:35:00,-0.001,0.0,0.0,0.0
16/07/2023,01:35:59,-0.001,0.0,0.0,0.0
16/07/2023,01:36:59,-0.000,0.0,0.0,0.0
16/07/2023,01:37:59,-0.000,0.0,0.0,0.0
16/07/2023,01:38:59,0.001,0.0,0.0,0.0
16/07/2023,01:39:59,-0.000,0.0,0.0,0.0
16/07/2023,01:40:59,-0.000,0.0,0.0,0.0
16/07/2023,01:42:00,-0.000,0.0,0.0,0.0
16/07/2023,01:42:59,-0.001,0.0,0.0,0.0
16/07/2023,01:43:59,-0.001,0.0,0.0,0.0
16/07/2023,01:44:59,-0.000,0.0,0.0,0.0
16/07/2023,01:46:00,-0.000,0.0,0.0,0.0
16/07/2023,01:46:59,-0.000,0.0,0.0,0.0
16/07/2023,01:47:59,-0.000,0.0,0.0,0.0
16/07/2023,01:49:00,-0.000,0.0,0.0,0.0
16/07/2023,01:49:59,-0.001,0.0,0.0,0.0
16/07/2023,01:51:00,-0.000,0.0,0.0,0.0
16/07/2023,01:51:59,-0.000,0.0,0.0,0.0
16/07/2023,01:53:00,-0.000,0.0,0.0,0.0
16/07/2023,01:53:59,-0.001,0.0,0.0,0.0
16/07/2023,01:54:59,-0.000,0.0,0.0,0.0
16/07/2023,01:56:00,0.001,0.0,0.0,0.0
16/07/2023,01:56:59,-0.000,0.0,0.0,0.0
16/07/2023,01:57:59,-0.000,0.0,0.0,0.0
16/07/2023,01:58:59,-0.000,0.0,0.0,0.0
16/07/2023,01:59:59,-0.000,0.0,0.0,0.0
16/07/2023,02:01:00,-0.001,0.0,0.0,0.0
16/07/2023,02:01:59,-0.000,0.0,0.0,0.0
16/07/2023,02:02:59,-0.000,0.0,0.0,0.0
16/07/2023,02:03:59,-0.001,0.0,0.0,0.0
16/07/2023,02:04:59,-0.000,0.0,0.0,0.0
16/07/2023,02:05:59,0.000,0.0,0.0,0.0
16/07/2023,02:06:59,-0.001,0.0,0.0,0.0
16/07/2023,02:08:00,-0.000,0.0,0.0,0.0
16/07/2023,02:08:59,-0.000,0.0,0.0,0.0
16/07/2023,02:10:00,-0.000,0.0,0.0,0.0
16/07/2023,02:10:59,-0.001,0.0,0.0,0.0
16/07/2023,02:12:00,-0.000,0.0,0.0,0.0
16/07/2023,02:12:59,-0.000,0.0,0.0,0.0
16/07/2023,02:13:59,0.001,0.0,0.0,0.0
16/07/2023,02:14:59,0.000,0.0,0.0,0.0
16/07/2023,02:16:00,0.000,0.0,0.0,0.0
16/07/2023,02:16:59,-0.000,0.0,0.0,0.0
16/07/2023,02:18:00,-0.001,0.0,0.0,0.0
16/07/2023,02:18:59,-0.000,0.0,0.0,0.0
16/07/2023,02:20:00,-0.000,0.0,0.0,0.0
16/07/2023,02:20:59,0.000,0.0,0.0,0.0
16/07/2023,02:21:59,-0.000,0.0,0.0,0.0
16/07/2023,02:22:59,0.000,0.0,0.0,0.0
16/07/2023,02:24:00,0.000,0.0,0.0,0.0
16/07/2023,02:25:00,0.001,0.0,0.0,0.0
16/07/2023,02:25:59,-0.001,0.0,0.0,0.0
16/07/2023,02:27:00,0.000,0.0,0.0,0.0
16/07/2023,02:28:28,0.000,0.0,0.0,0.0
16/07/2023,02:30:00,0.001,0.0,0.0,0.0
16/07/2023,02:30:59,0.000,0.0,0.0,0.0
16/07/2023,02:31:59,-0.001,0.0,0.0,0.0
16/07/2023,02:32:59,0.000,0.0,0.0,0.0
16/07/2023,02:34:00,0.000,0.0,0.0,0.0
16/07/2023,02:34:59,0.000,0.0,0.0,0.0
16/07/2023,02:36:00,0.000,0.0,0.0,0.0
16/07/2023,02:36:59,0.000,0.0,0.0,0.0
16/07/2023,02:38:00,0.000,0.0,0.0,0.0
16/07/2023,02:39:00,0.000,0.0,0.0,0.0
16/07/2023,02:39:59,-0.000,0.0,0.0,0.0
16/07/2023,02:41:00,-0.000,0.0,0.0,0.0
16/07/2023,02:41:59,0.000,0.0,0.0,0.0
16/07/2023,02:42:59,-0.001,0.0,0.0,0.0
16/07/2023,02:43:59,-0.001,0.0,0.0,0.0
16/07/2023,02:45:00,0.000,0.0,0.0,0.0
16/07/2023,02:45:59,-0.001,0.0,0.0,0.0
16/07/2023,02:47:00,-0.001,0.0,0.0,0.0
16/07/2023,02:47:59,0.000,0.0,0.0,0.0
16/07/2023,02:48:59,0.000,0.0,0.0,0.0
16/07/2023,02:49:59,-0.001,0.0,0.0,0.0
16/07/2023,02:50:59,0.000,0.0,0.0,0.0
16/07/2023,02:52:00,0.000,0.0,0.0,0.0
16/07/2023,02:52:59,0.000,0.0,0.0,0.0
16/07/2023,02:54:00,0.000,0.0,0.0,0.0
16/07/2023,02:54:59,0.000,0.0,0.0,0.0
16/07/2023,02:55:59,0.000,0.0,0.0,0.0
16/07/2023,02:56:59,0.001,0.0,0.0,0.0
16/07/2023,02:58:00,0.000,0.0,0.0,0.0
16/07/2023,02:58:59,0.001,0.0,0.0,0.0
16/07/2023,03:00:00,0.000,0.0,0.0,0.0
16/07/2023,03:00:59,0.000,0.0,0.0,0.0
16/07/2023,03:02:00,0.000,0.0,0.0,0.0
16/07/2023,03:02:59,0.000,0.0,0.0,0.0
16/07/2023,03:03:59,0.000,0.0,0.0,0.0
16/07/2023,03:04:59,0.000,0.0,0.0,0.0
16/07/2023,03:06:00,-0.001,0.0,0.0,0.0
16/07/2023,03:06:59,-0.000,0.0,0.0,0.0
16/07/2023,03:08:00,0.001,0.0,0.0,0.0
16/07/2023,03:08:59,0.000,0.0,0.0,0.0
16/07/2023,03:10:00,0.000,0.0,0.0,0.0
16/07/2023,03:11:00,0.000,0.0,0.0,0.0
16/07/2023,03:11:59,0.000,0.0,0.0,0.0
16/07/2023,03:12:59,-0.001,0.0,0.0,0.0
16/07/2023,03:14:00,-0.000,0.0,0.0,0.0
16/07/2023,03:15:00,-0.001,0.0,0.0,0.0
16/07/2023,03:15:59,0.001,0.0,0.0,0.0
16/07/2023,03:16:59,-0.000,0.0,0.0,0.0
16/07/2023,03:17:59,0.001,0.0,0.0,0.0
16/07/2023,03:18:59,0.000,0.0,0.0,0.0
16/07/2023,03:20:00,0.000,0.0,0.0,0.0
16/07/2023,03:21:00,0.000,0.0,0.0,0.0
16/07/2023,03:21:59,-0.001,0.0,0.0,0.0
16/07/2023,03:22:59,0.000,0.0,0.0,0.0
16/07/2023,03:23:59,0.000,0.0,0.0,0.0
16/07/2023,03:24:59,0.000,0.0,0.0,0.0
16/07/2023,03:26:00,0.000,0.0,0.0,0.0
16/07/2023,03:27:00,-0.001,0.0,0.0,0.0
16/07/2023,03:27:59,0.000,0.0,0.0,0.0
16/07/2023,03:29:00,0.001,0.0,0.0,0.0
16/07/2023,03:29:59,0.000,0.0,0.0,0.0
16/07/2023,03:30:59,0.000,0.0,0.0,0.0
16/07/2023,03:31:59,-0.001,0.0,0.0,0.0
16/07/2023,03:33:00,0.000,0.0,0.0,0.0
16/07/2023,03:33:59,0.000,0.0,0.0,0.0
16/07/2023,03:35:00,0.000,0.0,0.0,0.0
16/07/2023,03:36:00,0.000,0.0,0.0,0.0
16/07/2023,03:36:59,0.000,0.0,0.0,0.0
16/07/2023,03:38:00,-0.001,0.0,0.0,0.0
16/07/2023,03:38:59,-0.001,0.0,0.0,0.0
16/07/2023,03:39:59,0.000,0.0,0.0,0.0
16/07/2023,03:41:00,0.000,0.0,0.0,0.0
16/07/2023,03:41:59,0.001,0.0,0.0,0.0
16/07/2023,03:43:00,0.001,0.0,0.0,0.0
16/07/2023,03:44:00,0.001,0.0,0.0,0.0
16/07/2023,03:44:59,0.001,0.0,0.0,0.0
16/07/2023,03:46:00,0.000,0.0,0.0,0.0
16/07/2023,03:46:59,0.001,0.0,0.0,0.0
16/07/2023,03:47:59,0.001,0.0,0.0,0.0
16/07/2023,03:49:00,-0.000,0.0,0.0,0.0
16/07/2023,03:49:59,0.002,0.0,0.0,0.0
16/07/2023,03:50:59,0.001,0.0,0.0,0.0
16/07/2023,03:51:59,0.002,0.0,0.0,0.0
16/07/2023,03:53:00,0.001,0.0,0.0,0.0
16/07/2023,03:54:00,0.001,0.0,0.0,0.0
16/07/2023,03:54:59,0.001,0.0,0.0,0.0
16/07/2023,03:56:00,0.001,0.0,0.0,0.0
16/07/2023,03:57:01,0.002,0.0,0.0,0.0
16/07/2023,03:57:59,0.001,0.0,0.0,0.0
16/07/2023,03:59:00,0.002,0.0,0.0,0.0
16/07/2023,03:59:59,0.002,0.0,0.0,0.0
16/07/2023,04:00:59,0.002,0.0,0.0,0.0
16/07/2023,04:02:00,0.002,0.0,0.0,0.0
16/07/2023,04:03:00,0.002,0.0,0.0,0.0
16/07/2023,04:04:00,0.002,0.0,0.0,0.0
16/07/2023,04:04:59,0.002,0.0,0.0,0.0
16/07/2023,04:06:00,0.003,0.0,0.0,0.0
16/07/2023,04:06:59,0.002,0.0,0.0,0.0
16/07/2023,04:07:59,0.002,0.0,0.0,0.0
16/07/2023,04:09:00,0.003,0.0,0.0,0.0
16/07/2023,04:09:59,0.003,0.0,0.0,0.0
16/07/2023,04:11:00,0.004,0.0,0.0,0.0
16/07/2023,04:11:59,0.005,0.0,0.0,0.0
16/07/2023,04:12:59,0.004,0.0,0.0,0.0
16/07/2023,04:14:00,0.004,0.0,0.0,0.0
16/07/2023,04:15:00,0.003,0.0,0.0,0.0
16/07/2023,04:15:59,0.005,0.0,0.0,0.0
16/07/2023,04:17:00,0.005,0.0,0.0,0.0
16/07/2023,04:18:00,0.005,0.0,0.0,0.0
16/07/2023,04:18:59,0.004,0.0,0.0,0.0
16/07/2023,04:20:00,0.006,0.0,0.0,0.0
16/07/2023,04:20:59,0.005,0.0,0.0,0.0
16/07/2023,04:22:00,0.005,0.0,0.0,0.0
16/07/2023,04:22:59,0.005,0.0,0.0,0.0
16/07/2023,04:24:00,0.006,0.0,0.0,0.0
16/07/2023,04:24:59,0.006,0.0,0.0,0.0
16/07/2023,04:26:00,0.007,0.0,0.0,0.0
16/07/2023,04:26:59,0.007,0.0,0.0,0.0
16/07/2023,04:28:00,0.007,0.0,0.0,0.0
16/07/2023,04:28:59,0.008,0.0,0.001,0.001
16/07/2023,04:29:59,0.008,0.0,0.001,0.0
16/07/2023,04:31:00,0.008,0.0,0.001,0.0
16/07/2023,04:32:00,0.009,0.0,0.001,0.0
16/07/2023,04:33:00,0.008,0.0,0.001,0.0
16/07/2023,04:34:00,0.008,0.0,0.001,0.0
16/07/2023,04:35:00,0.009,0.0,0.001,0.0
16/07/2023,04:35:59,0.008,0.0,0.001,0.0
16/07/2023,04:36:59,0.009,0.0,0.002,0.001
16/07/2023,04:38:00,0.009,0.0,0.002,0.0
16/07/2023,04:38:59,0.009,0.0,0.002,0.0
16/07/2023,04:40:00,0.010,0.0,0.002,0.0
16/07/2023,04:40:59,0.009,0.0,0.002,0.0
16/07/2023,04:42:01,0.010,0.0,0.002,0.0
16/07/2023,04:43:00,0.009,0.0,0.003,0.001
16/07/2023,04:43:59,0.008,0.0,0.003,0.0
16/07/2023,04:45:00,0.008,0.0,0.003,0.0
16/07/2023,04:46:00,0.008,0.0,0.003,0.0
16/07/2023,04:46:59,0.009,0.0,0.003,0.0
16/07/2023,04:48:00,0.010,0.0,0.003,0.0
16/07/2023,04:49:00,0.012,0.0,0.003,0.0
16/07/2023,04:49:59,0.014,0.0,0.004,0.001
16/07/2023,04:51:00,0.015,0.0,0.004,0.0
16/07/2023,04:51:59,0.016,0.0,0.004,0.0
16/07/2023,04:52:59,0.016,0.0,0.004,0.0
16/07/2023,04:54:00,0.018,0.0,0.005,0.001
16/07/2023,04:54:59,0.018,0.0,0.005,0.0
16/07/2023,04:55:59,0.018,0.0,0.005,0.0
16/07/2023,04:57:00,0.019,0.0,0.006,0.001
16/07/2023,04:58:00,0.020,0.0,0.006,0.0
16/07/2023,04:58:59,0.021,0.0,0.006,0.0
16/07/2023,04:59:59,0.021,0.0,0.007,0.001
16/07/2023,05:01:00,0.023,0.0,0.007,0.0
16/07/2023,05:02:00,0.023,0.0,0.007,0.0
16/07/2023,05:03:00,0.025,0.0,0.008,0.001
16/07/2023,05:04:00,0.025,0.0,0.008,0.0
16/07/2023,05:05:00,0.027,0.0,0.009,0.001
16/07/2023,05:05:59,0.028,0.0,0.009,0.0
16/07/2023,05:07:00,0.028,0.0,0.01,0.001
16/07/2023,05:08:00,0.029,0.0,0.01,0.0
16/07/2023,05:08:59,0.030,0.0,0.011,0.001
16/07/2023,05:10:00,0.030,0.0,0.011,0.0
16/07/2023,05:11:00,0.032,0.0,0.012,0.001
16/07/2023,05:12:00,0.033,0.0,0.012,0.0
16/07/2023,05:12:59,0.033,0.0,0.013,0.001
16/07/2023,05:14:00,0.034,0.0,0.013,0.0
16/07/2023,05:14:59,0.035,0.0,0.014,0.001
16/07/2023,05:16:00,0.034,0.0,0.014,0.0
16/07/2023,05:16:59,0.036,0.0,0.015,0.001
16/07/2023,05:18:00,0.035,0.0,0.016,0.001
16/07/2023,05:19:00,0.036,0.0,0.016,0.0
16/07/2023,05:20:00,0.036,0.0,0.017,0.001
16/07/2023,05:20:59,0.037,0.0,0.017,0.0
16/07/2023,05:22:00,0.035,0.0,0.018,0.001
16/07/2023,05:23:00,0.034,0.0,0.018,0.0
16/07/2023,05:24:00,0.031,0.0,0.019,0.001
16/07/2023,05:25:00,0.032,0.0,0.02,0.001
16/07/2023,05:26:00,0.032,0.0,0.02,0.0
16/07/2023,05:27:00,0.034,0.0,0.021,0.001
16/07/2023,05:27:59,0.034,0.0,0.021,0.0
16/07/2023,05:29:00,0.029,0.0,0.022,0.001
16/07/2023,05:29:59,0.033,0.0,0.022,0.0
16/07/2023,05:31:00,0.042,0.0,0.023,0.001
16/07/2023,05:31:59,0.048,0.0,0.024,0.001
16/07/2023,05:33:00,0.047,0.0,0.024,0.0
16/07/2023,05:33:59,0.042,0.0,0.025,0.001
16/07/2023,05:35:00,0.037,0.0,0.026,0.001
16/07/2023,05:36:01,0.034,0.0,0.026,0.0
16/07/2023,05:37:00,0.034,0.0,0.027,0.001
16/07/2023,05:38:00,0.036,0.0,0.028,0.001
16/07/2023,05:39:00,0.036,0.0,0.028,0.0
16/07/2023,05:39:59,0.036,0.0,0.029,0.001
16/07/2023,05:41:00,0.036,0.0,0.029,0.0
16/07/2023,05:42:00,0.035,0.0,0.03,0.001
16/07/2023,05:43:00,0.036,0.0,0.031,0.001
16/07/2023,05:43:59,0.037,0.0,0.031,0.0
16/07/2023,05:45:00,0.037,0.0,0.032,0.001
16/07/2023,05:45:59,0.039,0.0,0.032,0.0
16/07/2023,05:47:00,0.037,0.0,0.033,0.001
16/07/2023,05:47:59,0.032,0.0,0.034,0.001
16/07/2023,05:49:00,0.026,0.0,0.034,0.0
16/07/2023,05:49:59,0.029,0.0,0.035,0.001
16/07/2023,05:51:00,0.035,0.0,0.035,0.0
16/07/2023,05:51:59,0.043,0.0,0.036,0.001
16/07/2023,05:53:01,0.051,0.0,0.037,0.001
16/07/2023,05:53:59,0.054,0.0,0.037,0.0
16/07/2023,05:55:22,0.053,0.0,0.039,0.002
16/07/2023,05:57:00,0.042,0.0,0.04,0.001
16/07/2023,05:57:59,0.036,0.0,0.041,0.001
16/07/2023,05:59:00,0.028,0.0,0.041,0.0
16/07/2023,06:00:00,0.025,0.0,0.042,0.001
16/07/2023,06:01:01,0.033,0.0,0.042,0.0
16/07/2023,06:02:00,0.037,0.0,0.043,0.001
16/07/2023,06:03:00,0.048,0.0,0.043,0.0
16/07/2023,06:04:00,0.053,0.0,0.044,0.001
16/07/2023,06:05:00,0.049,0.0,0.045,0.001
16/07/2023,06:05:59,0.043,0.0,0.046,0.001
16/07/2023,06:07:00,0.037,0.0,0.046,0.0
16/07/2023,06:08:00,0.032,0.0,0.047,0.001
16/07/2023,06:09:00,0.030,0.0,0.048,0.001
16/07/2023,06:09:59,0.031,0.0,0.048,0.0
16/07/2023,06:10:59,0.036,0.0,0.049,0.001
16/07/2023,06:12:00,0.044,0.0,0.049,0.0
16/07/2023,06:13:00,0.055,0.0,0.05,0.001
16/07/2023,06:14:00,0.062,0.0,0.051,0.001
16/07/2023,06:15:00,0.067,0.0,0.052,0.001
16/07/2023,06:15:59,0.069,0.0,0.053,0.001
16/07/2023,06:17:00,0.064,0.0,0.054,0.001
16/07/2023,06:18:00,0.066,0.0,0.055,0.001
16/07/2023,06:19:00,0.065,0.0,0.057,0.002
16/07/2023,06:19:59,0.054,0.0,0.058,0.001
16/07/2023,06:21:00,0.061,0.0,0.058,0.0
16/07/2023,06:21:59,0.078,0.0,0.06,0.002
16/07/2023,06:22:59,0.092,0.0,0.061,0.001
16/07/2023,06:24:00,0.102,0.0,0.063,0.002
16/07/2023,06:25:00,0.110,0.0,0.064,0.001
16/07/2023,06:25:59,0.109,0.0,0.066,0.002
16/07/2023,06:27:00,0.105,0.0,0.068,0.002
16/07/2023,06:27:59,0.103,0.0,0.07,0.002
16/07/2023,06:29:00,0.112,0.0,0.072,0.002
16/07/2023,06:29:59,0.128,0.0,0.074,0.002
16/07/2023,06:31:00,0.139,0.0,0.076,0.002
16/07/2023,06:32:00,0.146,0.0,0.078,0.002
16/07/2023,06:32:59,0.142,0.0,0.081,0.003
16/07/2023,06:34:00,0.149,0.0,0.083,0.002
16/07/2023,06:34:59,0.149,0.0,0.086,0.003
16/07/2023,06:36:00,0.129,0.0,0.088,0.002
16/07/2023,06:36:59,0.123,0.0,0.09,0.002
16/07/2023,06:37:59,0.133,0.0,0.092,0.002
16/07/2023,06:39:00,0.138,0.0,0.094,0.002
16/07/2023,06:40:00,0.141,0.0,0.097,0.003
16/07/2023,06:41:00,0.145,0.0,0.099,0.002
16/07/2023,06:41:59,0.139,0.0,0.101,0.002
16/07/2023,06:42:59,0.132,0.0,0.104,0.003
16/07/2023,06:44:00,0.143,0.0,0.106,0.002
16/07/2023,06:45:00,0.145,0.0,0.108,0.002
16/07/2023,06:45:59,0.143,0.0,0.111,0.003
16/07/2023,06:47:00,0.126,0.0,0.113,0.002
16/07/2023,06:47:59,0.126,0.0,0.115,0.002
16/07/2023,06:49:00,0.120,0.0,0.117,0.002
16/07/2023,06:50:00,0.126,0.0,0.119,0.002
16/07/2023,06:50:59,0.136,0.0,0.121,0.002
16/07/2023,06:52:00,0.145,0.0,0.124,0.003
16/07/2023,06:53:00,0.148,0.0,0.126,0.002
16/07/2023,06:54:00,0.159,0.0,0.129,0.003
16/07/2023,06:54:59,0.178,0.0,0.132,0.003
16/07/2023,06:56:00,0.189,0.0,0.135,0.003
16/07/2023,06:57:00,0.202,0.0,0.138,0.003
16/07/2023,06:57:59,0.206,0.0,0.141,0.003
16/07/2023,06:59:00,0.203,0.0,0.145,0.004
16/07/2023,06:59:59,0.199,0.0,0.148,0.003
16/07/2023,07:01:00,0.200,0.0,0.151,0.003
16/07/2023,07:02:00,0.189,0.0,0.155,0.004
16/07/2023,07:03:00,0.198,0.0,0.158,0.003
16/07/2023,07:04:00,0.201,0.0,0.161,0.003
16/07/2023,07:05:00,0.204,0.0,0.165,0.004
16/07/2023,07:05:59,0.209,0.0,0.168,0.003
16/07/2023,07:07:00,0.207,0.0,0.171,0.003
16/07/2023,07:08:00,0.184,0.0,0.175,0.004
16/07/2023,07:09:00,0.171,0.0,0.178,0.003
16/07/2023,07:10:00,0.160,0.0,0.18,0.002
16/07/2023,07:10:59,0.152,0.0,0.183,0.003
16/07/2023,07:12:00,0.151,0.0,0.186,0.003
16/07/2023,07:13:00,0.170,0.0,0.188,0.002
16/07/2023,07:13:59,0.196,0.0,0.191,0.003
16/07/2023,07:15:00,0.200,0.0,0.195,0.004
16/07/2023,07:16:00,0.222,1.0,0.198,0.003
16/07/2023,07:17:00,0.259,1.0,0.202,0.004
16/07/2023,07:18:00,0.287,1.0,0.207,0.005
16/07/2023,07:19:00,0.369,1.0,0.212,0.005
16/07/2023,07:20:00,0.305,1.0,0.218,0.006
16/07/2023,07:21:00,0.287,1.0,0.223,0.005
16/07/2023,07:22:00,0.281,1.0,0.228,0.005
16/07/2023,07:23:00,0.298,1.0,0.232,0.004
16/07/2023,07:23:58,0.328,1.0,0.238,0.006
16/07/2023,07:25:00,0.300,1.0,0.243,0.005
16/07/2023,07:26:00,0.314,1.0,0.248,0.005
16/07/2023,07:27:00,0.332,1.0,0.254,0.006
16/07/2023,07:28:00,0.305,1.0,0.26,0.006
16/07/2023,07:29:00,0.321,1.0,0.265,0.005
16/07/2023,07:30:00,0.373,1.0,0.27,0.005
16/07/2023,07:31:00,0.351,1.0,0.276,0.006
16/07/2023,07:32:00,0.358,1.0,0.282,0.006
16/07/2023,07:32:59,0.357,1.0,0.288,0.006
16/07/2023,07:34:00,0.444,1.0,0.295,0.007
16/07/2023,07:35:00,0.355,1.0,0.301,0.006
16/07/2023,07:36:00,0.369,1.0,0.307,0.006
16/07/2023,07:37:00,0.402,1.0,0.313,0.006
16/07/2023,07:37:59,0.488,1.0,0.321,0.008
16/07/2023,07:39:00,0.451,1.0,0.329,0.008
16/07/2023,07:40:00,0.396,1.0,0.336,0.007
16/07/2023,07:41:00,0.389,1.0,0.343,0.007
16/07/2023,07:42:00,0.456,1.0,0.35,0.007
16/07/2023,07:43:00,0.418,1.0,0.356,0.006
16/07/2023,07:43:59,0.395,1.0,0.363,0.007
16/07/2023,07:45:00,0.559,1.0,0.371,0.008
16/07/2023,07:45:59,0.574,1.0,0.381,0.01
16/07/2023,07:47:00,0.584,1.0,0.39,0.009
16/07/2023,07:48:00,0.534,1.0,0.399,0.009
16/07/2023,07:49:00,0.463,1.0,0.408,0.009
16/07/2023,07:50:00,0.600,1.0,0.418,0.01
16/07/2023,07:51:00,0.604,1.0,0.428,0.01
16/07/2023,07:52:00,0.611,1.0,0.438,0.01
16/07/2023,07:53:00,0.623,1.0,0.448,0.01
16/07/2023,07:54:00,0.571,1.0,0.459,0.011
16/07/2023,07:55:00,0.516,1.0,0.467,0.008
16/07/2023,07:56:00,0.554,1.0,0.475,0.008
16/07/2023,07:57:00,0.628,1.0,0.485,0.01
16/07/2023,07:58:00,0.658,2.0,0.496,0.011
16/07/2023,07:59:00,0.585,1.0,0.506,0.01
16/07/2023,08:00:00,0.671,2.0,0.517,0.011
16/07/2023,08:01:01,0.574,1.0,0.527,0.01
16/07/2023,08:02:00,0.534,1.0,0.536,0.009
16/07/2023,08:03:00,0.610,1.0,0.546,0.01
16/07/2023,08:04:00,0.516,1.0,0.555,0.009
16/07/2023,08:05:00,0.542,1.0,0.564,0.009
16/07/2023,08:05:59,0.716,2.0,0.575,0.011
16/07/2023,08:07:00,0.502,1.0,0.585,0.01
16/07/2023,08:08:00,0.483,1.0,0.593,0.008
16/07/2023,08:09:00,0.486,1.0,0.601,0.008
16/07/2023,08:10:00,0.453,1.0,0.61,0.009
16/07/2023,08:11:00,0.474,1.0,0.617,0.007
16/07/2023,08:12:00,0.506,1.0,0.626,0.009
16/07/2023,08:13:00,0.645,1.0,0.635,0.009
16/07/2023,08:14:00,0.434,1.0,0.643,0.008
16/07/2023,08:14:59,0.431,1.0,0.65,0.007
16/07/2023,08:16:00,0.411,1.0,0.657,0.007
16/07/2023,08:17:00,0.376,1.0,0.664,0.007
16/07/2023,08:18:00,0.358,1.0,0.67,0.006
16/07/2023,08:19:00,0.349,1.0,0.676,0.006
16/07/2023,08:20:00,0.385,1.0,0.682,0.006
16/07/2023,08:21:00,0.412,1.0,0.689,0.007
16/07/2023,08:22:00,0.496,1.0,0.696,0.007
16/07/2023,08:23:00,0.592,1.0,0.705,0.009
16/07/2023,08:24:00,0.535,1.0,0.715,0.01
16/07/2023,08:25:00,0.533,1.0,0.724,0.009
16/07/2023,08:26:00,0.422,1.0,0.732,0.008
16/07/2023,08:27:00,0.490,1.0,0.739,0.007
16/07/2023,08:28:00,0.578,1.0,0.748,0.009
16/07/2023,08:28:59,0.624,1.0,0.759,0.011
16/07/2023,08:30:00,0.684,2.0,0.77,0.011
16/07/2023,08:31:00,0.847,2.0,0.782,0.012
16/07/2023,08:32:00,0.642,1.0,0.794,0.012
16/07/2023,08:33:00,0.656,2.0,0.805,0.011
16/07/2023,08:33:59,0.595,1.0,0.815,0.01
16/07/2023,08:35:00,0.615,1.0,0.825,0.01
16/07/2023,08:36:00,0.640,1.0,0.835,0.01
16/07/2023,08:37:00,0.683,2.0,0.846,0.011
16/07/2023,08:37:59,0.751,2.0,0.859,0.013
16/07/2023,08:39:00,0.771,2.0,0.871,0.012
16/07/2023,08:40:00,0.717,2.0,0.884,0.013
16/07/2023,08:41:00,0.801,2.0,0.896,0.012
16/07/2023,08:41:59,0.831,2.0,0.91,0.014
16/07/2023,08:43:00,0.681,2.0,0.922,0.012
16/07/2023,08:44:00,0.646,1.0,0.933,0.011
16/07/2023,08:45:00,0.661,2.0,0.944,0.011
16/07/2023,08:46:00,0.686,2.0,0.955,0.011
16/07/2023,08:47:00,0.732,2.0,0.967,0.012
16/07/2023,08:48:00,0.844,2.0,0.98,0.013
16/07/2023,08:49:00,0.855,2.0,0.994,0.014
16/07/2023,08:49:59,0.817,2.0,1.008,0.014
16/07/2023,08:51:00,0.988,2.0,1.022,0.014
16/07/2023,08:52:00,1.249,3.0,1.041,0.019
16/07/2023,08:53:00,0.888,2.0,1.059,0.018
16/07/2023,08:54:00,0.864,2.0,1.073,0.014
16/07/2023,08:54:59,0.946,2.0,1.089,0.016
16/07/2023,08:56:00,0.994,2.0,1.106,0.017
16/07/2023,08:57:29,0.926,2.0,1.131,0.025
16/07/2023,08:59:00,0.878,2.0,1.153,0.022
16/07/2023,09:00:00,0.900,2.0,1.168,0.015
16/07/2023,09:01:00,0.905,2.0,1.183,0.015
16/07/2023,09:02:00,1.019,2.0,1.199,0.016
16/07/2023,09:03:00,0.936,2.0,1.215,0.016
16/07/2023,09:04:00,0.954,2.0,1.231,0.016
16/07/2023,09:05:00,0.941,2.0,1.247,0.016
16/07/2023,09:06:00,0.944,2.0,1.262,0.015
16/07/2023,09:07:00,0.912,2.0,1.278,0.016
16/07/2023,09:08:00,0.888,2.0,1.292,0.014
16/07/2023,09:09:00,0.825,2.0,1.307,0.015
16/07/2023,09:10:00,0.835,2.0,1.32,0.013
16/07/2023,09:11:00,0.869,2.0,1.334,0.014
16/07/2023,09:12:02,0.848,2.0,1.349,0.015
16/07/2023,09:13:01,0.843,2.0,1.363,0.014
16/07/2023,09:14:02,0.859,2.0,1.378,0.015
16/07/2023,09:15:00,0.872,2.0,1.392,0.014
16/07/2023,09:16:01,0.882,2.0,1.406,0.014
16/07/2023,09:17:01,0.882,2.0,1.421,0.015
16/07/2023,09:18:00,0.904,2.0,1.436,0.015
16/07/2023,09:19:00,0.907,2.0,1.451,0.015
16/07/2023,09:20:00,0.941,2.0,1.466,0.015
16/07/2023,09:21:00,1.012,2.0,1.483,0.017
16/07/2023,09:22:01,1.186,3.0,1.503,0.02
16/07/2023,09:23:00,1.376,3.0,1.522,0.019
16/07/2023,09:24:00,1.466,3.0,1.546,0.024
16/07/2023,09:25:00,1.464,3.0,1.57,0.024
16/07/2023,09:26:00,1.478,3.0,1.595,0.025
16/07/2023,09:27:00,1.473,3.0,1.619,0.024
16/07/2023,09:28:00,1.447,3.0,1.644,0.025
16/07/2023,09:29:00,1.519,3.0,1.669,0.025
16/07/2023,09:30:00,1.554,4.0,1.695,0.026
16/07/2023,09:31:00,1.344,3.0,1.718,0.023
16/07/2023,09:32:00,1.558,4.0,1.743,0.025
16/07/2023,09:33:00,1.506,3.0,1.769,0.026
16/07/2023,09:34:00,1.564,4.0,1.794,0.025
16/07/2023,09:35:00,1.247,3.0,1.819,0.025
16/07/2023,09:36:00,1.236,3.0,1.84,0.021
16/07/2023,09:37:00,1.589,4.0,1.864,0.024
16/07/2023,09:38:00,1.112,3.0,1.884,0.02
16/07/2023,09:39:00,1.078,2.0,1.902,0.018
16/07/2023,09:40:00,1.189,3.0,1.921,0.019
16/07/2023,09:41:00,1.051,2.0,1.941,0.02
16/07/2023,09:42:00,0.956,2.0,1.957,0.016
16/07/2023,09:43:00,0.949,2.0,1.973,0.016
16/07/2023,09:43:59,0.946,2.0,1.989,0.016
16/07/2023,09:45:00,0.936,2.0,2.005,0.016
16/07/2023,09:46:00,0.916,2.0,2.02,0.015
16/07/2023,09:47:00,0.911,2.0,2.035,0.015
16/07/2023,09:47:59,0.944,2.0,2.051,0.016
16/07/2023,09:49:00,1.002,2.0,2.067,0.016
16/07/2023,09:50:00,0.996,2.0,2.083,0.016
16/07/2023,09:51:02,0.974,2.0,2.1,0.017
16/07/2023,09:52:00,0.932,2.0,2.116,0.016
16/07/2023,09:53:00,0.958,2.0,2.131,0.015
16/07/2023,09:54:00,0.977,2.0,2.147,0.016
16/07/2023,09:55:00,0.980,2.0,2.164,0.017
16/07/2023,09:56:00,0.966,2.0,2.18,0.016